QPF
0.05 0.03 0.03 0.02 0.02 0.03 0.03 0.04 0.03 0.03 0.03 0.03 0.07 0.06 0.07 0.08 0.06 0.06 0.04 0.03 0.03 0.05 0.06 0.05 0.05 0.06 0.05 0.03 0.03 0.04 0.04 0.07 0.09 0.13 0.09 0.04 0.02 0.03 0.04 0.04 0.03 0.02 0.01
0.04 0.04 0.02 0.02 0.02 0.02 0.03 0.03 0.03 0.03 0.03 0.03 0.03 0.04 0.06 0.07 0.08 0.09 0.07 0.04 0.03 0.03 0.05 0.06 0.06 0.08 0.07 0.05 0.04 0.05 0.05 0.08 0.12 0.13 0.10 0.05 0.05 0.05 0.05 0.05 0.03 0.03 0.02
0.04 0.05 0.04 0.03 0.02 0.02 0.04 0.04 0.03 0.04 0.04 0.03 0.04 0.05 0.07 0.09 0.09 0.10 0.10 0.08 0.06 0.03 0.03 0.06 0.08 0.08 0.09 0.08 0.08 0.08 0.08 0.10 0.14 0.14 0.10 0.06 0.06 0.06 0.05 0.04 0.02 0.02 0.01
0.04 0.04 0.04 0.03 0.04 0.04 0.03 0.04 0.06 0.04 0.05 0.05 0.06 0.07 0.07 0.09 0.11 0.11 0.11 0.07 0.05 0.04 0.03 0.05 0.08 0.09 0.09 0.10 0.11 0.12 0.10 0.11 0.13 0.13 0.09 0.06 0.07 0.07 0.05 0.03 0.02 0.01 0.01
0.03 0.03 0.04 0.03 0.03 0.04 0.05 0.05 0.07 0.05 0.06 0.05 0.08 0.07 0.07 0.09 0.17 0.14 0.14 0.12 0.09 0.06 0.04 0.05 0.09 0.10 0.12 0.12 0.13 0.13 0.10 0.11 0.14 0.13 0.10 0.09 0.09 0.10 0.06 0.04 0.04 0.02 0.02
0.03 0.03 0.03 0.05 0.05 0.05 0.05 0.07 0.07 0.07 0.08 0.08 0.07 0.07 0.09 0.11 0.11 0.13 0.13 0.14 0.13 0.10 0.10 0.10 0.11 0.11 0.14 0.14 0.17 0.18 0.16 0.16 0.22 0.19 0.13 0.13 0.13 0.15 0.11 0.06 0.05 0.04 0.03
0.02 0.03 0.04 0.06 0.06 0.06 0.06 0.06 0.07 0.07 0.07 0.09 0.08 0.07 0.08 0.10 0.11 0.11 0.11 0.11 0.12 0.15 0.20 0.26 0.21 0.16 0.16 0.16 0.18 0.23 0.24 0.21 0.27 0.27 0.22 0.20 0.16 0.14 0.12 0.07 0.06 0.06 0.05
0.02 0.02 0.03 0.05 0.06 0.06 0.06 0.07 0.07 0.09 0.10 0.10 0.12 0.13 0.09 0.07 0.09 0.10 0.08 0.07 0.11 0.16 0.23 0.29 0.28 0.24 0.21 0.18 0.19 0.28 0.30 0.23 0.21 0.21 0.19 0.16 0.11 0.09 0.09 0.06 0.06 0.05 0.07
0.02 0.02 0.04 0.04 0.06 0.05 0.05 0.07 0.06 0.06 0.09 0.09 0.08 0.10 0.07 0.05 0.06 0.07 0.07 0.09 0.14 0.16 0.15 0.18 0.21 0.22 0.23 0.23 0.25 0.34 0.30 0.24 0.21 0.21 0.18 0.12 0.08 0.06 0.05 0.04 0.04 0.04 0.06
0.03 0.04 0.05 0.05 0.05 0.05 0.05 0.05 0.05 0.04 0.06 0.07 0.06 0.07 0.07 0.06 0.05 0.05 0.08 0.08 0.09 0.12 0.13 0.13 0.16 0.18 0.20 0.23 0.25 0.35 0.28 0.22 0.23 0.21 0.17 0.13 0.10 0.06 0.04 0.04 0.04 0.04 0.05
0.03 0.04 0.06 0.07 0.07 0.05 0.04 0.05 0.06 0.05 0.05 0.05 0.05 0.07 0.08 0.06 0.05 0.06 0.05 0.05 0.06 0.08 0.09 0.12 0.13 0.15 0.14 0.17 0.19 0.23 0.22 0.17 0.16 0.14 0.12 0.12 0.13 0.11 0.07 0.05 0.05 0.06 0.05
0.04 0.05 0.06 0.12 0.09 0.07 0.05 0.04 0.06 0.04 0.04 0.04 0.05 0.06 0.07 0.06 0.06 0.06 0.05 0.05 0.06 0.07 0.08 0.10 0.13 0.14 0.13 0.13 0.14 0.15 0.13 0.11 0.10 0.09 0.08 0.07 0.08 0.09 0.09 0.08 0.07 0.08 0.08
0.04 0.05 0.06 0.06 0.05 0.05 0.05 0.05 0.06 0.04 0.05 0.05 0.06 0.06 0.07 0.07 0.07 0.06 0.08 0.08 0.09 0.08 0.08 0.08 0.11 0.13 0.11 0.11 0.09 0.07 0.07 0.07 0.07 0.05 0.04 0.03 0.03 0.04 0.05 0.06 0.07 0.07 0.08
0.04 0.07 0.07 0.06 0.05 0.03 0.03 0.03 0.04 0.05 0.06 0.06 0.07 0.07 0.07 0.07 0.07 0.07 0.09 0.09 0.10 0.09 0.08 0.09 0.09 0.11 0.11 0.11 0.10 0.09 0.08 0.06 0.05 0.04 0.03 0.04 0.03 0.03 0.03 0.03 0.04 0.05 0.07
0.04 0.06 0.05 0.05 0.05 0.04 0.03 0.03 0.03 0.04 0.06 0.07 0.08 0.06 0.04 0.05 0.06 0.06 0.10 0.10 0.10 0.10 0.12 0.13 0.13 0.12 0.10 0.10 0.12 0.10 0.09 0.08 0.06 0.04 0.04 0.04 0.04 0.03 0.02 0.02 0.02 0.03 0.03
0.03 0.04 0.03 0.03 0.03 0.03 0.02 0.03 0.03 0.04 0.04 0.05 0.06 0.05 0.04 0.04 0.05 0.06 0.07 0.10 0.12 0.12 0.13 0.17 0.18 0.14 0.12 0.11 0.16 0.16 0.11 0.09 0.07 0.05 0.05 0.04 0.04 0.03 0.02 0.02 0.02 0.02 0.02
0.01 0.02 0.02 0.02 0.02 0.02 0.03 0.03 0.03 0.03 0.03 0.04 0.04 0.03 0.04 0.06 0.07 0.06 0.07 0.09 0.11 0.11 0.09 0.13 0.18 0.16 0.13 0.13 0.15 0.20 0.16 0.11 0.09 0.07 0.05 0.04 0.03 0.03 0.03 0.02 0.01 0.01 0.01
0.01 0.01 0.01 0.01 0.01 0.01 0.02 0.03 0.02 0.01 0.02 0.02 0.04 0.04 0.05 0.06 0.07 0.07 0.09 0.11 0.12 0.12 0.09 0.10 0.15 0.15 0.12 0.11 0.12 0.15 0.15 0.13 0.11 0.09 0.06 0.05 0.05 0.05 0.04 0.03 0.02 0.02 0.01
0.01 0.01 0.01 0.01 0.01 0.01 0.01 0.01 0.01 0.01 0.01 0.01 0.03 0.04 0.04 0.05 0.07 0.09 0.10 0.11 0.12 0.12 0.12 0.09 0.10 0.12 0.09 0.07 0.06 0.06 0.07 0.07 0.07 0.07 0.06 0.06 0.06 0.05 0.05 0.04 0.03 0.03 0.02
0.01 0.01 0.01 0.02 0.02 0.01 0.01 0.01 0.01 0.02 0.02 0.02 0.02 0.03 0.03 0.04 0.06 0.08 0.09 0.10 0.11 0.13 0.13 0.10 0.08 0.07 0.06 0.06 0.05 0.05 0.04 0.03 0.04 0.03 0.04 0.05 0.05 0.06 0.06 0.05 0.05 0.05 0.04
0.00 0.01 0.02 0.02 0.02 0.02 0.01 0.02 0.02 0.02 0.02 0.02 0.03 0.03 0.04 0.04 0.04 0.06 0.07 0.07 0.07 0.08 0.08 0.07 0.06 0.06 0.07 0.08 0.06 0.05 0.04 0.03 0.03 0.03 0.02 0.02 0.03 0.04 0.05 0.06 0.06 0.05 0.05
0.01 0.01 0.02 0.02 0.02 0.01 0.02 0.02 0.03 0.02 0.02 0.02 0.03 0.03 0.04 0.04 0.03 0.04 0.06 0.06 0.05 0.06 0.06 0.07 0.08 0.08 0.07 0.06 0.04 0.04 0.03 0.03 0.03 0.03 0.02 0.02 0.02 0.02 0.02 0.03 0.03 0.03 0.03
0.02 0.03 0.03 0.03 0.02 0.03 0.04 0.03 0.03 0.03 0.03 0.03 0.03 0.04 0.04 0.04 0.04 0.03 0.04 0.05 0.05 0.05 0.06 0.07 0.08 0.08 0.07 0.06 0.05 0.04 0.04 0.04 0.03 0.03 0.03 0.02 0.01 0.01 0.02 0.02 0.02 0.02 0.02
0.02 0.03 0.03 0.03 0.03 0.03 0.04 0.04 0.05 0.04 0.04 0.04 0.04 0.04 0.04 0.04 0.04 0.04 0.04 0.03 0.03 0.07 0.08 0.06 0.06 0.06 0.06 0.06 0.05 0.04 0.04 0.04 0.03 0.03 0.03 0.01 0.01 0.01 0.01 0.02 0.02 0.02 0.03
0.03 0.03 0.03 0.03 0.03 0.03 0.05 0.06 0.07 0.07 0.07 0.07 0.05 0.05 0.05 0.04 0.05 0.06 0.05 0.03 0.03 0.04 0.05 0.04 0.04 0.04 0.05 0.05 0.05 0.05 0.05 0.05 0.03 0.02 0.02 0.02 0.01 0.02 0.03 0.03 0.02 0.01 0.01
0.04 0.04 0.04 0.04 0.05 0.06 0.07 0.08 0.08 0.07 0.08 0.08 0.08 0.07 0.06 0.05 0.05 0.05 0.04 0.03 0.02 0.03 0.03 0.03 0.03 0.03 0.03 0.03 0.03 0.02 0.02 0.03 0.03 0.02 0.02 0.02 0.01 0.02 0.02 0.02 0.01 0.01 0.01
MSLP
1016.27 1016.44 1016.52 1016.53 1016.51 1016.50 1016.51 1016.55 1016.64 1016.75 1016.88 1017.01 1017.14 1017.28 1017.44 1017.64 1017.89 1018.19 1018.53 1018.88 1019.22 1019.50 1019.72 1019.86 1019.94 1019.97 1019.98 1020.01 1020.06 1020.16 1020.30 1020.47 1020.65 1020.83 1021.00 1021.14 1021.27 1021.38 1021.49 1021.60 1021.72 1021.84 1021.96
1016.29 1016.47 1016.56 1016.58 1016.57 1016.55 1016.56 1016.61 1016.70 1016.82 1016.96 1017.10 1017.24 1017.38 1017.53 1017.70 1017.91 1018.16 1018.44 1018.73 1019.03 1019.30 1019.53 1019.70 1019.83 1019.91 1019.97 1020.03 1020.10 1020.20 1020.33 1020.47 1020.63 1020.79 1020.94 1021.08 1021.21 1021.33 1021.45 1021.58 1021.72 1021.85 1021.98
1016.14 1016.35 1016.47 1016.53 1016.56 1016.59 1016.63 1016.71 1016.82 1016.96 1017.11 1017.26 1017.41 1017.53 1017.65 1017.78 1017.92 1018.08 1018.28 1018.50 1018.74 1018.98 1019.20 1019.40 1019.57 1019.71 1019.83 1019.94 1020.05 1020.17 1020.29 1020.42 1020.56 1020.70 1020.84 1020.97 1021.11 1021.24 1021.38 1021.53 1021.68 1021.83 1021.97
1015.87 1016.09 1016.27 1016.39 1016.49 1016.59 1016.69 1016.82 1016.96 1017.13 1017.29 1017.45 1017.58 1017.69 1017.77 1017.84 1017.90 1017.98 1018.08 1018.21 1018.37 1018.55 1018.75 1018.96 1019.16 1019.36 1019.54 1019.71 1019.87 1020.02 1020.16 1020.29 1020.42 1020.55 1020.68 1020.82 1020.96 1021.11 1021.27 1021.43 1021.60 1021.76 1021.91
1015.51 1015.76 1015.98 1016.19 1016.37 1016.55 1016.73 1016.91 1017.09 1017.28 1017.46 1017.61 1017.73 1017.82 1017.86 1017.88 1017.87 1017.86 1017.87 1017.90 1017.97 1018.09 1018.25 1018.44 1018.66 1018.89 1019.12 1019.35 1019.55 1019.74 1019.90 1020.05 1020.18 1020.32 1020.46 1020.60 1020.76 1020.93 1021.11 1021.29 1021.46 1021.63 1021.78
1015.14 1015.39 1015.66 1015.93 1016.20 1016.46 1016.71 1016.94 1017.17 1017.37 1017.55 1017.70 1017.82 1017.89 1017.91 1017.89 1017.84 1017.76 1017.69 1017.63 1017.62 1017.66 1017.75 1017.91 1018.12 1018.36 1018.62 1018.87 1019.11 1019.33 1019.52 1019.69 1019.84 1019.99 1020.14 1020.31 1020.49 1020.69 1020.89 1021.08 1021.27 1021.43 1021.58
1014.79 1015.04 1015.34 1015.66 1015.99 1016.32 1016.62 1016.90 1017.14 1017.36 1017.54 1017.70 1017.81 1017.89 1017.91 1017.89 1017.82 1017.71 1017.58 1017.46 1017.36 1017.32 1017.35 1017.45 1017.62 1017.84 1018.09 1018.36 1018.61 1018.84 1019.04 1019.22 1019.39 1019.56 1019.74 1019.93 1020.14 1020.36 1020.59 1020.80 1020.99 1021.16 1021.31
1014.51 1014.73 1015.03 1015.39 1015.76 1016.13 1016.46 1016.75 1017.01 1017.22 1017.41 1017.57 1017.70 1017.80 1017.86 1017.86 1017.80 1017.70 1017.55 1017.39 1017.25 1017.14 1017.10 1017.13 1017.24 1017.41 1017.62 1017.86 1018.09 1018.31 1018.51 1018.69 1018.87 1019.05 1019.24 1019.46 1019.70 1019.95 1020.21 1020.44 1020.66 1020.83 1020.98
1014.30 1014.49 1014.77 1015.13 1015.51 1015.88 1016.22 1016.50 1016.75 1016.95 1017.14 1017.31 1017.46 1017.61 1017.72 1017.78 1017.78 1017.71 1017.59 1017.43 1017.26 1017.11 1017.01 1016.97 1017.01 1017.12 1017.27 1017.45 1017.64 1017.82 1017.99 1018.15 1018.31 1018.49 1018.69 1018.93 1019.20 1019.48 1019.76 1020.03 1020.27 1020.48 1020.65
1014.14 1014.29 1014.54 1014.87 1015.23 1015.58 1015.90 1016.16 1016.37 1016.56 1016.73 1016.91 1017.10 1017.29 1017.47 1017.61 1017.69 1017.69 1017.62 1017.49 1017.33 1017.17 1017.04 1016.96 1016.94 1016.98 1017.07 1017.18 1017.30 1017.42 1017.54 1017.65 1017.78 1017.94 1018.14 1018.38 1018.66 1018.97 1019.29 1019.60 1019.89 1020.13 1020.34
1014.00 1014.11 1014.33 1014.62 1014.94 1015.25 1015.51 1015.73 1015.90 1016.05 1016.20 1016.39 1016.60 1016.84 1017.08 1017.30 1017.46 1017.55 1017.56 1017.50 1017.38 1017.24 1017.12 1017.02 1016.97 1016.97 1017.00 1017.05 1017.10 1017.16 1017.20 1017.26 1017.33 1017.45 1017.63 1017.86 1018.16 1018.50 1018.86 1019.22 1019.55 1019.86 1020.13
1013.83 1013.92 1014.10 1014.35 1014.62 1014.87 1015.08 1015.24 1015.36 1015.46 1015.59 1015.75 1015.97 1016.24 1016.53 1016.81 1017.05 1017.23 1017.32 1017.34 1017.30 1017.22 1017.14 1017.07 1017.03 1017.02 1017.03 1017.04 1017.04 1017.03 1017.01 1017.00 1017.02 1017.09 1017.23 1017.46 1017.76 1018.12 1018.52 1018.94 1019.34 1019.71 1020.06
1013.61 1013.69 1013.85 1014.06 1014.28 1014.48 1014.62 1014.72 1014.78 1014.83 1014.91 1015.05 1015.25 1015.51 1015.81 1016.13 1016.42 1016.66 1016.83 1016.94 1016.99 1017.00 1017.01 1017.01 1017.03 1017.06 1017.09 1017.10 1017.08 1017.03 1016.97 1016.90 1016.87 1016.90 1017.01 1017.22 1017.52 1017.91 1018.35 1018.82 1019.29 1019.73 1020.15
1013.33 1013.42 1013.57 1013.75 1013.93 1014.08 1014.17 1014.21 1014.21 1014.21 1014.23 1014.32 1014.47 1014.69 1014.97 1015.28 1015.59 1015.86 1016.09 1016.27 1016.42 1016.54 1016.66 1016.78 1016.90 1017.02 1017.12 1017.17 1017.18 1017.14 1017.06 1016.97 1016.91 1016.91 1017.00 1017.20 1017.50 1017.91 1018.39 1018.91 1019.44 1019.95 1020.43
1012.99 1013.10 1013.26 1013.43 1013.58 1013.70 1013.75 1013.75 1013.70 1013.64 1013.60 1013.62 1013.70 1013.85 1014.07 1014.33 1014.60 1014.87 1015.12 1015.36 1015.60 1015.83 1016.07 1016.33 1016.60 1016.84 1017.06 1017.21 1017.29 1017.31 1017.26 1017.19 1017.13 1017.13 1017.22 1017.42 1017.74 1018.16 1018.66 1019.22 1019.79 1020.35 1020.88
1012.64 1012.78 1012.95 1013.12 1013.27 1013.37 1013.40 1013.37 1013.29 1013.18 1013.08 1013.02 1013.01 1013.07 1013.19 1013.35 1013.55 1013.77 1014.02 1014.28 1014.58 1014.91 1015.28 1015.68 1016.10 1016.51 1016.87 1017.16 1017.37 1017.48 1017.53 1017.52 1017.52 1017.55 1017.67 1017.89 1018.22 1018.66 1019.18 1019.75 1020.33 1020.91 1021.46
1012.30 1012.48 1012.67 1012.85 1013.01 1013.11 1013.14 1013.10 1013.00 1012.86 1012.70 1012.57 1012.47 1012.41 1012.41 1012.45 1012.54 1012.69 1012.88 1013.14 1013.46 1013.86 1014.34 1014.87 1015.44 1016.02 1016.55 1017.01 1017.37 1017.64 1017.81 1017.93 1018.02 1018.13 1018.30 1018.56 1018.92 1019.37 1019.88 1020.45 1021.02 1021.58 1022.10
1012.01 1012.22 1012.43 1012.64 1012.82 1012.93 1012.98 1012.94 1012.84 1012.68 1012.48 1012.28 1012.09 1011.92 1011.79 1011.71 1011.68 1011.72 1011.83 1012.05 1012.37 1012.81 1013.35 1013.99 1014.69 1015.42 1016.12 1016.75 1017.30 1017.74 1018.08 1018.35 1018.57 1018.80 1019.05 1019.37 1019.76 1020.21 1020.72 1021.25 1021.78 1022.28 1022.76
1011.79 1012.02 1012.25 1012.48 1012.68 1012.82 1012.88 1012.87 1012.77 1012.61 1012.39 1012.13 1011.87 1011.60 1011.36 1011.15 1011.00 1010.93 1010.96 1011.11 1011.40 1011.84 1012.42 1013.13 1013.93 1014.77 1015.62 1016.42 1017.14 1017.76 1018.29 1018.73 1019.11 1019.47 1019.84 1020.22 1020.65 1021.10 1021.58 1022.06 1022.53 1022.96 1023.36
1011.63 1011.87 1012.12 1012.36 1012.57 1012.74 1012.83 1012.84 1012.76 1012.60 1012.37 1012.09 1011.77 1011.44 1011.10 1010.80 1010.54 1010.37 1010.31 1010.39 1010.63 1011.04 1011.62 1012.36 1013.21 1014.15 1015.11 1016.04 1016.92 1017.72 1018.42 1019.04 1019.58 1020.08 1020.56 1021.02 1021.48 1021.94 1022.38 1022.81 1023.20 1023.55 1023.87
1011.53 1011.76 1012.00 1012.25 1012.47 1012.65 1012.76 1012.79 1012.73 1012.59 1012.37 1012.08 1011.74 1011.37 1010.98 1010.61 1010.29 1010.04 1009.91 1009.92 1010.10 1010.47 1011.03 1011.76 1012.63 1013.61 1014.63 1015.67 1016.66 1017.60 1018.45 1019.23 1019.92 1020.55 1021.13 1021.66 1022.16 1022.62 1023.03 1023.40 1023.72 1024.00 1024.24
1011.44 1011.65 1011.89 1012.13 1012.35 1012.52 1012.64 1012.69 1012.65 1012.53 1012.32 1012.05 1011.72 1011.34 1010.95 1010.55 1010.20 1009.92 1009.74 1009.71 1009.84 1010.17 1010.68 1011.38 1012.23 1013.21 1014.25 1015.33 1016.39 1017.42 1018.38 1019.27 1020.08 1020.81 1021.48 1022.07 1022.61 1023.07 1023.47 1023.79 1024.06 1024.28 1024.47
1011.34 1011.53 1011.75 1011.97 1012.17 1012.34 1012.46 1012.51 1012.48 1012.38 1012.21 1011.96 1011.66 1011.32 1010.95 1010.59 1010.24 1009.97 1009.79 1009.74 1009.84 1010.12 1010.59 1011.24 1012.04 1012.97 1013.99 1015.06 1016.14 1017.19 1018.21 1019.16 1020.04 1020.84 1021.56 1022.20 1022.76 1023.24 1023.63 1023.94 1024.19 1024.39 1024.55
1011.19 1011.37 1011.57 1011.76 1011.94 1012.09 1012.19 1012.24 1012.22 1012.15 1012.01 1011.81 1011.56 1011.28 1010.98 1010.68 1010.39 1010.16 1010.01 1009.97 1010.07 1010.33 1010.74 1011.33 1012.06 1012.91 1013.87 1014.87 1015.91 1016.94 1017.94 1018.90 1019.79 1020.62 1021.36 1022.03 1022.61 1023.10 1023.51 1023.84 1024.10 1024.31 1024.49
1011.00 1011.17 1011.35 1011.51 1011.67 1011.79 1011.87 1011.91 1011.90 1011.84 1011.74 1011.60 1011.43 1011.24 1011.03 1010.82 1010.62 1010.47 1010.37 1010.37 1010.48 1010.72 1011.09 1011.61 1012.25 1013.01 1013.86 1014.77 1015.71 1016.66 1017.60 1018.51 1019.37 1020.17 1020.91 1021.58 1022.18 1022.69 1023.13 1023.50 1023.80 1024.06 1024.29
1010.75 1010.92 1011.08 1011.23 1011.35 1011.45 1011.51 1011.53 1011.53 1011.50 1011.45 1011.38 1011.29 1011.19 1011.09 1010.98 1010.89 1010.83 1010.81 1010.86 1010.99 1011.22 1011.56 1012.01 1012.57 1013.22 1013.95 1014.73 1015.55 1016.39 1017.22 1018.03 1018.82 1019.57 1020.28 1020.93 1021.53 1022.07 1022.55 1022.97 1023.34 1023.67 1023.98
Thickness
5759 5759 5759 5758 5758 5758 5758 5757 5757 5757 5757 5757 5756 5755 5754 5753 5752 5752 5751 5750 5749 5748 5746 5744 5742 5740 5738 5736 5734 5732 5730 5728 5727 5725 5723 5721 5720 5719 5717 5716 5715 5714 5712
5760 5759 5759 5759 5759 5759 5758 5758 5758 5758 5757 5757 5756 5756 5754 5753 5753 5752 5751 5750 5749 5748 5746 5744 5743 5741 5739 5737 5734 5732 5730 5729 5727 5726 5724 5722 5720 5719 5718 5716 5715 5713 5712
5762 5761 5760 5759 5759 5759 5759 5759 5758 5758 5757 5756 5755 5755 5754 5754 5753 5752 5752 5751 5750 5749 5747 5745 5744 5742 5740 5738 5735 5733 5731 5729 5728 5726 5724 5723 5721 5719 5718 5717 5715 5713 5712
5764 5762 5760 5759 5759 5759 5759 5758 5757 5756 5755 5754 5753 5753 5754 5753 5753 5752 5751 5751 5750 5749 5748 5747 5745 5743 5741 5739 5737 5734 5732 5730 5728 5727 5725 5723 5721 5720 5718 5717 5715 5714 5712
5764 5763 5761 5760 5760 5760 5759 5758 5756 5755 5753 5752 5751 5752 5752 5752 5752 5751 5751 5751 5750 5750 5749 5748 5746 5744 5742 5740 5738 5736 5733 5731 5729 5727 5725 5723 5722 5720 5718 5717 5715 5713 5711
5765 5764 5763 5761 5760 5759 5757 5757 5755 5754 5753 5752 5751 5750 5750 5751 5751 5751 5751 5750 5750 5750 5749 5748 5746 5745 5743 5741 5739 5737 5734 5732 5729 5727 5726 5724 5722 5720 5719 5717 5715 5714 5712
5766 5764 5763 5761 5760 5758 5756 5756 5755 5752 5751 5751 5747 5744 5746 5750 5750 5750 5750 5750 5750 5749 5748 5747 5746 5746 5744 5742 5740 5738 5736 5733 5730 5728 5726 5724 5722 5721 5719 5717 5715 5714 5712
5766 5765 5763 5761 5760 5757 5756 5755 5754 5750 5749 5749 5744 5739 5735 5739 5745 5749 5749 5749 5749 5749 5748 5747 5747 5745 5745 5743 5741 5739 5736 5733 5731 5728 5726 5724 5722 5720 5719 5717 5715 5713 5711
5768 5766 5764 5762 5760 5758 5756 5755 5754 5750 5746 5747 5747 5741 5733 5730 5736 5743 5746 5747 5747 5747 5747 5747 5746 5745 5744 5742 5740 5738 5736 5733 5731 5728 5726 5724 5722 5720 5718 5716 5714 5712 5710
5769 5767 5765 5763 5762 5760 5757 5756 5755 5753 5749 5745 5746 5747 5744 5741 5735 5734 5739 5743 5745 5745 5745 5745 5745 5744 5742 5741 5739 5737 5735 5732 5730 5728 5725 5723 5721 5719 5717 5715 5713 5711 5709
5769 5767 5766 5764 5762 5760 5758 5757 5755 5753 5751 5747 5745 5745 5744 5743 5741 5734 5732 5736 5739 5741 5742 5742 5742 5741 5740 5738 5736 5734 5732 5730 5729 5726 5724 5721 5719 5717 5715 5714 5712 5710 5708
5767 5767 5766 5764 5763 5761 5759 5757 5756 5754 5752 5750 5748 5747 5744 5741 5739 5736 5732 5732 5732 5736 5738 5739 5738 5738 5736 5735 5733 5731 5729 5727 5725 5723 5721 5719 5717 5716 5714 5712 5710 5708 5707
5764 5765 5765 5763 5762 5761 5759 5758 5756 5754 5752 5750 5749 5747 5746 5745 5743 5740 5735 5731 5729 5731 5733 5734 5734 5734 5732 5730 5729 5727 5725 5723 5721 5719 5718 5716 5714 5713 5711 5710 5708 5706 5704
5765 5765 5764 5763 5762 5761 5759 5757 5755 5753 5752 5750 5749 5748 5746 5745 5744 5742 5737 5732 5726 5725 5726 5727 5729 5729 5727 5726 5724 5722 5720 5718 5716 5715 5714 5712 5710 5709 5707 5706 5704 5702 5701
5767 5765 5764 5762 5761 5760 5758 5756 5753 5752 5751 5750 5748 5747 5745 5745 5744 5743 5740 5736 5729 5720 5719 5722 5723 5724 5723 5721 5719 5717 5715 5713 5711 5710 5709 5707 5705 5704 5702 5701 5699 5698 5697
5767 5765 5763 5761 5759 5758 5757 5755 5753 5752 5749 5748 5747 5746 5744 5743 5742 5741 5739 5736 5733 5726 5719 5720 5720 5720 5720 5717 5714 5713 5710 5709 5706 5704 5703 5702 5700 5699 5697 5696 5694 5693 5692
5766 5764 5762 5760 5757 5756 5755 5753 5751 5750 5748 5746 5746 5744 5742 5742 5740 5738 5737 5734 5731 5727 5720 5717 5717 5716 5714 5712 5709 5707 5705 5703 5700 5698 5697 5696 5694 5693 5691 5690 5689 5688 5686
5765 5763 5761 5758 5756 5754 5752 5750 5749 5748 5746 5744 5743 5742 5740 5740 5738 5736 5734 5732 5729 5726 5721 5714 5712 5710 5708 5706 5703 5700 5699 5697 5694 5692 5691 5689 5688 5687 5685 5684 5683 5681 5680
5763 5761 5759 5755 5753 5751 5750 5748 5747 5746 5744 5742 5741 5739 5738 5737 5734 5733 5731 5728 5726 5725 5720 5714 5709 5706 5702 5700 5696 5694 5692 5690 5688 5685 5683 5682 5681 5679 5678 5677 5675 5674 5673
5761 5758 5756 5754 5751 5750 5748 5746 5745 5743 5741 5740 5739 5737 5736 5734 5732 5730 5728 5725 5723 5719 5716 5711 5706 5701 5697 5695 5691 5687 5683 5682 5680 5679 5677 5675 5673 5672 5670 5669 5668 5667 5665
5759 5756 5754 5751 5749 5747 5745 5743 5742 5740 5738 5736 5735 5734 5733 5731 5730 5728 5725 5722 5719 5714 5710 5706 5701 5696 5692 5689 5686 5683 5679 5675 5673 5672 5670 5668 5666 5664 5663 5661 5660 5659 5658
5755 5753 5750 5747 5745 5744 5743 5741 5739 5737 5735 5732 5730 5728 5727 5726 5725 5723 5721 5719 5716 5711 5706 5701 5697 5693 5690 5687 5683 5680 5675 5670 5666 5666 5664 5660 5659 5657 5656 5654 5652 5651 5650
5751 5748 5746 5744 5742 5741 5740 5738 5736 5733 5730 5728 5725 5723 5722 5720 5719 5717 5715 5713 5710 5707 5705 5701 5695 5691 5688 5685 5680 5675 5671 5667 5664 5662 5658 5653 5652 5649 5649 5647 5645 5644 5642
5746 5744 5742 5740 5738 5737 5736 5734 5731 5728 5725 5723 5721 5718 5715 5713 5712 5710 5707 5705 5702 5700 5699 5696 5693 5690 5687 5684 5679 5674 5669 5663 5659 5657 5654 5648 5645 5643 5643 5640 5638 5636 5634
5742 5740 5738 5736 5734 5732 5731 5729 5726 5722 5719 5716 5715 5713 5710 5707 5706 5704 5701 5697 5695 5693 5692 5691 5688 5685 5682 5679 5674 5669 5662 5657 5651 5649 5648 5643 5639 5636 5634 5632 5630 5628 5626
5738 5736 5733 5731 5729 5727 5726 5724 5721 5718 5714 5711 5708 5706 5705 5702 5700 5698 5695 5691 5688 5686 5685 5684 5681 5679 5676 5672 5669 5665 5660 5653 5647 5643 5643 5638 5633 5628 5625 5624 5622 5620 5618